Regional Weather Roundup
Issued by NWS

Home | Current Version | Previous Version | Text Only | Print | Product List | Glossary On
Versions: 1 2 3 4 5 6 7 8 9 10 11 12 13 14 15 16 17 18 19 20 21 22 23 24 25 26 27 28 29 30 31 32 33 34 35 36 37 38 39 40 41 42 43 44 45 46 47 48 49 50
000
ASCA42 TJSJ 141010
RWRPR
PUERTO RICO/U.S. VIRGIN ISLANDS HOURLY WEATHER ROUNDUP
NATIONAL WEATHER SERVICE SAN JUAN PR
600 AM AST SUN FEB 14 2016

PRZ001-004-141100-
PUERTO RICO

CITY           SKY/WX    TMP DP  RH WIND       PRES   REMARKS
SAN JUAN LMM   PTCLDY    72  70  94 E6        29.98R
CEIBA          MOCLDY    72  68  88 N8        29.99R
$$

PRZ006-007-141100-
U.S. VIRGIN ISLANDS

CITY           SKY/WX    TMP DP  RH WIND       PRES   REMARKS
CHARLOTTE AMA  CLOUDY    75  64  69 E10       29.96R
CHRISTIANSTED  PTCLDY    72  66  83 N5        29.97R
$$

HOURLY WEATHER ROUNDUP FOR THE NEWS MEDIA

CITY           SKY/WX    TMP DP  RH WIND       PRES   REMARKS
ORLANDO        CLEAR     48  37  65 N8        30.25S
NEW YORK       PTCLDY     4 -17  37 NW23G36   30.41R WCI -18
NEWARK         PTCLDY     3 -13  47 NW15G21   30.42R WCI -16
CHICAGO        CLOUDY    12   2  64 S9        30.40F WCI   0
HARTFORD       CLEAR     -8 -23  47 NW12G21   30.24R WCI -27
BOSTON         PTCLDY    -9 -25  45 W21G28    30.27R WCI -34
DALLAS         CLOUDY    59  52  77 S15G24    29.98F
PHILADELPHIA   PTCLDY    10 -10  40 NW16      30.45R WCI  -7
LOS ANGELES    FOG       51  49  92 NW3       30.06S VSB 1/8
WASHINGTON DC  FAIR       9  -3  58 NW5       30.49R WCI   1


USA.gov is the U.S. government's official web portal to all federal, state and local government web resources and services.